Location: Caixon
(43.4106°N, 0.0273°E)
Time: 21:07:54
(UTC+00:00)

SJ-12 - Pass Details

Date: 16 October 2021
Orbit: 568 x 583 km, 97.7° (Epoch: 07 December)

Event Time Altitude Azimuth Distance (km) Brightness Sun altitude
Rises 05:32:40 0° 5° (N) 2,781 7.4 -8.5°
Reaches altitude 10° 05:34:54 10° 359° (N) 1,878 6.5 -8.1°
Maximum altitude 05:38:44 42° 288° (WNW) 818 4.3 -7.4°
Drops below altitude 10° 05:42:33 10° 217° (SW) 1,864 6.2 -6.7°
Sets 05:44:45 0° 211° (SSW) 2,757 7.1 -6.3°
